Time,TemperatureF,DewpointF,PressureIn,WindDirection,WindDirectionDegrees,WindSpeedMPH,WindSpeedGustMPH,Humidity,HourlyPrecipIn,Conditions,Clouds,dailyrainin,SoftwareType,DateUTC
2013-05-20 00:05:00,64.4,61.1,29.96,NE,45,0.0,-999.0,89,-99.99,,,0.00,Acu-Link.com,2013-05-20 04:05:00,
2013-05-20 00:20:00,64.4,61.4,29.95,ESE,112,0.0,-999.0,90,-99.99,,,0.00,Acu-Link.com,2013-05-20 04:20:00,
2013-05-20 00:35:00,64.4,61.4,29.96,SE,135,0.0,-999.0,90,-99.99,,,0.00,Acu-Link.com,2013-05-20 04:35:00,
2013-05-20 00:51:00,64.4,61.7,29.95,NW,315,0.0,-999.0,91,-99.99,,,0.00,Acu-Link.com,2013-05-20 04:51:00,
2013-05-20 01:06:00,64.4,62.3,29.95,South,180,0.0,-999.0,93,-99.99,,,0.00,Acu-Link.com,2013-05-20 05:06:00,
2013-05-20 01:21:00,62.6,60.5,29.95,East,90,0.0,-999.0,93,-99.99,,,0.00,Acu-Link.com,2013-05-20 05:21:00,
2013-05-20 01:36:00,62.6,60.8,29.95,East,90,0.0,-999.0,94,-99.99,,,0.00,Acu-Link.com,2013-05-20 05:36:00,
2013-05-20 01:52:00,62.6,61.1,29.95,NE,45,0.0,-999.0,95,-99.99,,,0.00,Acu-Link.com,2013-05-20 05:52:00,
2013-05-20 02:07:00,62.6,61.1,29.95,ENE,67,0.0,-999.0,95,-99.99,,,0.00,Acu-Link.com,2013-05-20 06:07:00,
2013-05-20 02:22:00,62.6,61.4,29.96,ENE,67,0.0,-999.0,96,-99.99,,,0.00,Acu-Link.com,2013-05-20 06:22:00,
2013-05-20 02:37:00,62.6,61.7,29.96,ENE,67,0.0,-999.0,97,-99.99,,,0.00,Acu-Link.com,2013-05-20 06:37:00,
2013-05-20 02:52:00,62.6,61.7,29.96,WNW,292,0.0,-999.0,97,-99.99,,,0.00,Acu-Link.com,2013-05-20 06:52:00,
2013-05-20 03:08:00,62.6,61.7,29.95,ENE,67,0.0,-999.0,97,-99.99,,,0.00,Acu-Link.com,2013-05-20 07:08:00,
2013-05-20 03:23:00,62.6,61.7,29.96,SE,135,0.0,-999.0,97,-99.99,,,0.00,Acu-Link.com,2013-05-20 07:23:00,
2013-05-20 03:38:00,60.8,59.9,29.95,SSE,157,0.0,-999.0,97,-99.99,,,0.00,Acu-Link.com,2013-05-20 07:38:00,
2013-05-20 03:54:00,60.8,60.2,29.96,East,90,0.0,-999.0,98,-99.99,,,0.00,Acu-Link.com,2013-05-20 07:54:00,
2013-05-20 04:09:00,62.6,62.3,29.96,ESE,112,1.1,-999.0,99,-99.99,,,0.00,Acu-Link.com,2013-05-20 08:09:00,
2013-05-20 04:24:00,62.6,62.3,29.96,East,90,0.0,-999.0,99,-99.99,,,0.00,Acu-Link.com,2013-05-20 08:24:00,
2013-05-20 04:39:00,62.6,62.3,29.97,ENE,67,0.0,-999.0,99,-99.99,,,0.00,Acu-Link.com,2013-05-20 08:39:00,
2013-05-20 04:54:00,62.6,62.3,29.97,ENE,67,0.0,-999.0,99,-99.99,,,0.00,Acu-Link.com,2013-05-20 08:54:00,
2013-05-20 05:09:00,62.6,62.3,29.97,NE,45,0.0,-999.0,99,-99.99,,,0.00,Acu-Link.com,2013-05-20 09:09:00,
2013-05-20 05:24:00,62.6,62.3,29.96,NW,315,0.0,-999.0,99,-99.99,,,0.00,Acu-Link.com,2013-05-20 09:24:00,
2013-05-20 05:39:00,60.8,60.5,29.96,East,90,0.0,-999.0,99,-99.99,,,0.00,Acu-Link.com,2013-05-20 09:39:00,
2013-05-20 05:55:00,60.8,60.5,29.96,ESE,112,0.0,-999.0,99,-99.99,,,0.00,Acu-Link.com,2013-05-20 09:55:00,
2013-05-20 06:10:00,60.8,60.5,29.97,West,270,0.0,-999.0,99,-99.99,,,0.00,Acu-Link.com,2013-05-20 10:10:00,
2013-05-20 06:25:00,62.6,62.3,29.98,SE,135,0.0,-999.0,99,-99.99,,,0.00,Acu-Link.com,2013-05-20 10:25:00,
2013-05-20 06:40:00,62.6,62.3,29.97,ESE,112,0.0,-999.0,99,-99.99,,,0.00,Acu-Link.com,2013-05-20 10:40:00,
2013-05-20 06:55:00,62.6,62.3,29.98,ENE,67,0.0,-999.0,99,-99.99,,,0.00,Acu-Link.com,2013-05-20 10:55:00,
2013-05-20 07:10:00,62.6,62.3,29.98,SW,225,1.6,-999.0,99,-99.99,,,0.00,Acu-Link.com,2013-05-20 11:10:00,
2013-05-20 07:25:00,62.6,62.3,29.98,South,180,2.7,-999.0,99,-99.99,,,0.00,Acu-Link.com,2013-05-20 11:25:00,
2013-05-20 07:40:00,64.4,64.1,29.98,SW,225,1.6,-999.0,99,-99.99,,,0.00,Acu-Link.com,2013-05-20 11:40:00,
2013-05-20 07:55:00,66.2,65.9,29.99,SW,225,0.0,-999.0,99,-99.99,,,0.00,Acu-Link.com,2013-05-20 11:55:00,
2013-05-20 08:10:00,66.2,64.7,29.98,WSW,247,2.0,-999.0,95,-99.99,,,0.00,Acu-Link.com,2013-05-20 12:10:00,
2013-05-20 08:25:00,68.0,65.3,29.98,East,90,1.6,-999.0,91,-99.99,,,0.00,Acu-Link.com,2013-05-20 12:25:00,
2013-05-20 08:40:00,69.8,66.7,29.98,ESE,112,1.6,-999.0,90,-99.99,,,0.00,Acu-Link.com,2013-05-20 12:40:00,
2013-05-20 08:55:00,73.4,67.6,29.97,NW,315,1.6,-999.0,82,-99.99,,,0.00,Acu-Link.com,2013-05-20 12:55:00,
2013-05-20 09:10:00,77.0,68.1,29.96,SE,135,1.6,-999.0,74,-99.99,,,0.00,Acu-Link.com,2013-05-20 13:10:00,
2013-05-20 09:25:00,80.6,66.8,29.96,ESE,112,1.1,-999.0,63,-99.99,,,0.00,Acu-Link.com,2013-05-20 13:25:00,
2013-05-20 09:40:00,84.2,67.8,29.97,ESE,112,2.0,-999.0,58,-99.99,,,0.00,Acu-Link.com,2013-05-20 13:40:00,
2013-05-20 09:55:00,77.0,67.7,29.97,WSW,247,1.6,-999.0,73,-99.99,,,0.00,Acu-Link.com,2013-05-20 13:55:00,
2013-05-20 10:10:00,80.6,70.7,29.97,NNE,22,2.0,-999.0,72,-99.99,,,0.00,Acu-Link.com,2013-05-20 14:10:00,
2013-05-20 10:25:00,80.6,70.3,29.97,ESE,112,2.7,-999.0,71,-99.99,,,0.00,Acu-Link.com,2013-05-20 14:25:00,
2013-05-20 10:41:00,80.6,71.5,29.97,SSW,202,2.7,-999.0,74,-99.99,,,0.00,Acu-Link.com,2013-05-20 14:41:00,
2013-05-20 10:56:00,80.6,70.3,29.97,ENE,67,2.0,-999.0,71,-99.99,,,0.00,Acu-Link.com,2013-05-20 14:56:00,
2013-05-20 11:11:00,80.6,70.7,29.98,ESE,112,2.7,-999.0,72,-99.99,,,0.00,Acu-Link.com,2013-05-20 15:11:00,
2013-05-20 11:26:00,82.4,71.2,29.98,SE,135,3.1,-999.0,69,-99.99,,,0.00,Acu-Link.com,2013-05-20 15:26:00,
2013-05-20 11:41:00,84.2,72.5,29.97,SE,135,2.7,-999.0,68,-99.99,,,0.00,Acu-Link.com,2013-05-20 15:41:00,
2013-05-20 11:56:00,82.4,70.8,29.97,SSE,157,2.0,-999.0,68,-99.99,,,0.00,Acu-Link.com,2013-05-20 15:56:00,
2013-05-20 12:11:00,84.2,72.9,29.97,WSW,247,1.6,-999.0,69,-99.99,,,0.00,Acu-Link.com,2013-05-20 16:11:00,
2013-05-20 12:26:00,82.4,72.4,29.97,South,180,4.0,-999.0,72,-99.99,,,0.00,Acu-Link.com,2013-05-20 16:26:00,
2013-05-20 12:41:00,86.0,74.2,29.97,SSW,202,3.6,-999.0,68,-99.99,,,0.00,Acu-Link.com,2013-05-20 16:41:00,
2013-05-20 12:56:00,82.4,70.3,29.97,SSE,157,3.6,-999.0,67,-99.99,,,0.00,Acu-Link.com,2013-05-20 16:56:00,
2013-05-20 13:11:00,82.4,70.8,29.97,SSW,202,2.7,-999.0,68,-99.99,,,0.00,Acu-Link.com,2013-05-20 17:11:00,
2013-05-20 13:26:00,82.4,71.2,29.95,SW,225,3.1,-999.0,69,-99.99,,,0.00,Acu-Link.com,2013-05-20 17:26:00,
2013-05-20 13:41:00,84.2,72.5,29.95,SSW,202,1.6,-999.0,68,-99.99,,,0.00,Acu-Link.com,2013-05-20 17:41:00,
2013-05-20 13:56:00,84.2,72.9,29.95,WSW,247,4.7,-999.0,69,-99.99,,,0.00,Acu-Link.com,2013-05-20 17:56:00,
2013-05-20 14:11:00,82.4,71.6,29.94,South,180,1.6,-999.0,70,-99.99,,,0.00,Acu-Link.com,2013-05-20 18:11:00,
2013-05-20 14:26:00,82.4,70.8,29.94,NW,315,2.0,-999.0,68,-99.99,,,0.00,Acu-Link.com,2013-05-20 18:26:00,
2013-05-20 14:41:00,84.2,72.5,29.93,West,270,2.7,-999.0,68,-99.99,,,0.00,Acu-Link.com,2013-05-20 18:41:00,
2013-05-20 14:57:00,84.2,72.0,29.93,SSW,202,2.7,-999.0,67,-99.99,,,0.00,Acu-Link.com,2013-05-20 18:57:00,
2013-05-20 15:12:00,82.4,71.2,29.92,SW,225,3.1,-999.0,69,-99.99,,,0.00,Acu-Link.com,2013-05-20 19:12:00,
2013-05-20 15:27:00,82.4,71.2,29.91,NNW,337,2.7,-999.0,69,-99.99,,,0.00,Acu-Link.com,2013-05-20 19:27:00,
2013-05-20 15:42:00,82.4,70.8,29.92,ESE,112,2.7,-999.0,68,-99.99,,,0.00,Acu-Link.com,2013-05-20 19:42:00,
2013-05-20 15:58:00,82.4,71.2,29.92,SE,135,3.1,-999.0,69,-99.99,,,0.00,Acu-Link.com,2013-05-20 19:58:00,
2013-05-20 16:13:00,82.4,71.2,29.91,West,270,4.7,-999.0,69,-99.99,,,0.00,Acu-Link.com,2013-05-20 20:13:00,
2013-05-20 16:28:00,82.4,71.2,29.89,North,0,3.1,-999.0,69,-99.99,,,0.00,Acu-Link.com,2013-05-20 20:28:00,
2013-05-20 16:43:00,82.4,70.8,29.89,NW,315,4.0,-999.0,68,-99.99,,,0.00,Acu-Link.com,2013-05-20 20:43:00,
2013-05-20 16:58:00,82.4,71.2,29.88,SSW,202,0.0,-999.0,69,-99.99,,,0.00,Acu-Link.com,2013-05-20 20:58:00,
2013-05-20 17:14:00,82.4,70.8,29.87,ESE,112,4.0,-999.0,68,-99.99,,,0.00,Acu-Link.com,2013-05-20 21:14:00,
2013-05-20 17:29:00,84.2,71.1,29.87,West,270,2.7,-999.0,65,-99.99,,,0.00,Acu-Link.com,2013-05-20 21:29:00,
2013-05-20 17:44:00,84.2,71.6,29.86,South,180,4.0,-999.0,66,-99.99,,,0.00,Acu-Link.com,2013-05-20 21:44:00,
2013-05-20 17:59:00,86.0,72.4,29.86,West,270,6.7,-999.0,64,-99.99,,,0.00,Acu-Link.com,2013-05-20 21:59:00,
2013-05-20 18:14:00,84.2,71.1,29.87,SSW,202,2.7,-999.0,65,-99.99,,,0.00,Acu-Link.com,2013-05-20 22:14:00,
2013-05-20 18:29:00,82.4,69.9,29.86,SE,135,2.0,-999.0,66,-99.99,,,0.00,Acu-Link.com,2013-05-20 22:29:00,
2013-05-20 18:44:00,82.4,69.9,29.86,East,90,2.7,-999.0,66,-99.99,,,0.00,Acu-Link.com,2013-05-20 22:44:00,
2013-05-20 18:59:00,82.4,70.3,29.87,WNW,292,2.7,-999.0,67,-99.99,,,0.00,Acu-Link.com,2013-05-20 22:59:00,
2013-05-20 19:14:00,80.6,68.6,29.87,SSE,157,5.1,-999.0,67,-99.99,,,0.00,Acu-Link.com,2013-05-20 23:14:00,
2013-05-20 19:29:00,80.6,69.0,29.87,SE,135,3.1,-999.0,68,-99.99,,,0.00,Acu-Link.com,2013-05-20 23:29:00,
2013-05-20 19:45:00,80.6,69.9,29.88,South,180,3.1,-999.0,70,-99.99,,,0.00,Acu-Link.com,2013-05-20 23:45:00,
2013-05-20 20:00:00,78.8,68.6,29.87,ENE,67,1.6,-999.0,71,-99.99,,,0.00,Acu-Link.com,2013-05-21 00:00:00,
2013-05-20 20:15:00,78.8,69.4,29.88,SW,225,1.1,-999.0,73,-99.99,,,0.00,Acu-Link.com,2013-05-21 00:15:00,
2013-05-20 20:30:00,77.0,68.8,29.88,ESE,112,2.0,-999.0,76,-99.99,,,0.00,Acu-Link.com,2013-05-21 00:30:00,
2013-05-20 20:45:00,75.2,67.5,29.88,ESE,112,2.0,-999.0,77,-99.99,,,0.00,Acu-Link.com,2013-05-21 00:45:00,
2013-05-20 21:00:00,73.4,66.5,29.88,SE,135,2.0,-999.0,79,-99.99,,,0.00,Acu-Link.com,2013-05-21 01:00:00,
2013-05-20 21:15:00,73.4,66.5,29.89,SSW,202,2.0,-999.0,79,-99.99,,,0.00,Acu-Link.com,2013-05-21 01:15:00,
2013-05-20 21:30:00,73.4,66.8,29.89,ESE,112,0.0,-999.0,80,-99.99,,,0.00,Acu-Link.com,2013-05-21 01:30:00,
2013-05-20 21:45:00,73.4,67.2,29.90,SE,135,2.0,-999.0,81,-99.99,,,0.00,Acu-Link.com,2013-05-21 01:45:00,
2013-05-20 22:00:00,71.6,65.8,29.90,SE,135,2.0,-999.0,82,-99.99,,,0.00,Acu-Link.com,2013-05-21 02:00:00,
2013-05-20 22:15:00,71.6,66.2,29.91,ESE,112,2.0,-999.0,83,-99.99,,,0.00,Acu-Link.com,2013-05-21 02:15:00,
2013-05-20 22:30:00,71.6,66.2,29.91,ENE,67,2.0,-999.0,83,-99.99,,,0.00,Acu-Link.com,2013-05-21 02:30:00,
2013-05-20 22:45:00,71.6,66.2,29.91,ESE,112,1.6,-999.0,83,-99.99,,,0.00,Acu-Link.com,2013-05-21 02:45:00,
2013-05-20 23:01:00,71.6,66.5,29.90,East,90,0.0,-999.0,84,-99.99,,,0.00,Acu-Link.com,2013-05-21 03:01:00,
2013-05-20 23:16:00,71.6,66.8,29.90,ESE,112,1.6,-999.0,85,-99.99,,,0.00,Acu-Link.com,2013-05-21 03:16:00,
2013-05-20 23:31:00,71.6,67.2,29.90,SE,135,2.0,-999.0,86,-99.99,,,0.00,Acu-Link.com,2013-05-21 03:31:00,
2013-05-20 23:46:00,71.6,67.2,29.90,ESE,112,0.0,-999.0,86,-99.99,,,0.00,Acu-Link.com,2013-05-21 03:46:00,